Flag for Germany Weather past 2 weeks in Neubrandenburg, Mecklenburg-Western Pomerania, Germany

Now
35 °F

Low clouds.


Feels Like: 29 °F
Forecast: 30 / 43 °F
Wind: 6 mph from West

Location: Greifswald

Current Time: Mar 4, 2015 at 1:51:29 AM

Latest Report: Mar 4, 2015 at 1:00 AM


Visibility: 8 mi

Pressure: 29.82 "Hg

Humidity: 92%

Dew point: 32 °F

Location of NeubrandenburgLocation

Historic Weather in Neubrandenburg — Graph

°F

Neubrandenburg temperature yesterday

Maximum temperature yesterday: 43 °F (at 3:00 PM)
Minimum temperature yesterday: 33 °F (at 11:00 PM)
Average temperature yesterday: 38 °F

Past Weeks' High & Low Weather Summary

 TemperatureHumidityPressure
High49 °F (Feb 27, 3:00 PM)99% (Feb 18, 6:00 AM)30.66 "Hg (Feb 18, 6:00 AM)
Low28 °F (Feb 17, 7:00 AM)43% (Feb 19, 3:00 PM)29.26 "Hg (Feb 21, 3:00 PM)
Average38 °F79%29.88 "Hg
* Reported Midnight between Feb 16 and Feb 17 — Midnight between Mar 3 and Mar 4, Neubrandenburg, Weather by CustomWeather, © 2015

Note: Actual official high and low records may vary slightly from our data, if they occured in-between our weather recording intervals... More about our weather records

Advertising

Neubrandenburg weather history for previous 24 hours

 ConditionsComfort  
Time TempWeatherWind HumidityBarometerVisibility
12:00 AM
Wed, Mar 4
35 °FOvercast.5 mph92%29.81 "Hg6 mi
11:00 PM
Tue, Mar 3
33 °FLight snow. Low clouds.1 mph97%29.81 "Hg3 mi
9:00 PM34 °FSnow. Overcast.2 mph96%29.86 "Hg1 mi
8:00 PM40 °FLight rain. Overcast.5 mph66%29.88 "Hg14 mi
7:00 PM40 °FOvercast.3 mph69%29.88 "Hg19 mi
6:00 PM41 °FOvercast.2 mph67%29.89 "Hg19 mi
5:00 PM42 °FPartly sunny.5 mph62%29.90 "Hg22 mi
3:00 PM43 °FOvercast.6 mph63%29.90 "Hg22 mi
2:00 PM42 °FPartly sunny.7 mph64%29.90 "Hg19 mi
1:00 PM42 °FPartly sunny.7 mph64%29.89 "Hg22 mi
12:00 PM43 °FPartly sunny.8 mph66%29.88 "Hg16 mi
11:00 AM41 °FOvercast.8 mph73%29.88 "Hg19 mi
10:00 AM40 °FPartly sunny.7 mph76%29.85 "Hg17 mi
9:00 AM39 °FPartly sunny.6 mph83%29.83 "Hg19 mi
8:00 AM38 °FOvercast.7 mph86%29.80 "Hg19 mi
7:00 AM36 °FLow clouds.5 mph89%29.77 "Hg12 mi
6:00 AM36 °FOvercast.5 mph84%29.75 "Hg14 mi
5:00 AM36 °FOvercast.5 mph84%29.73 "Hg11 mi
3:00 AM35 °FPassing clouds.3 mph84%29.69 "Hg13 mi
2:00 AM35 °FPassing clouds.5 mph84%29.67 "Hg18 mi
1:00 AM36 °FPassing clouds.5 mph83%29.65 "Hg17 mi
Weather by CustomWeather, © 2015

See weather overviewHow to use our weather pages